Flag for Azerbaijan Weather past 2 weeks in Sumqayit, Azerbaijan

Now
81 °F

Clear.


Feels Like: 83 °F
Forecast: 79 / 86 °F
Wind: 31 mph from Northwest

Location: Baku / Bine Airport

Current Time: Jul 4, 2015 at 3:50:30 AM

Latest Report: Jul 4, 2015 at 3:00 AM


Visibility: 10 mi

Pressure: 29.86 "Hg

Humidity: 66%

Dew point: 68 °F

Location of SumqayitLocation

Historic Weather in Sumqayit — Graph

°F

Sumqayit temperature yesterday

Maximum temperature yesterday: 91 °F (at 1:30 PM)
Minimum temperature yesterday: 75 °F (at 6:00 AM)
Average temperature yesterday: 83 °F

Past Weeks' High & Low Weather Summary

 TemperatureHumidityPressure
High102 °F (Jun 24, 2:30 PM)100% (Jun 24, 5:30 AM)30.04 "Hg (Jun 24, 5:30 AM)
Low66 °F (Jun 19, 6:00 AM)18% (Jun 24, 5:30 PM)29.53 "Hg (Jun 26, 1:00 PM)
Average82 °F63%29.72 "Hg
* Reported Jun 19 2:00 AM — Jul 4 2:30 AM, Sumqayit, Weather by CustomWeather, © 2015

Note: Actual official high and low records may vary slightly from our data, if they occured in-between our weather recording intervals... More about our weather records

Advertising

Sumqayit weather history for previous 24 hours

 ConditionsComfort  
Time TempWeatherWind HumidityBarometerVisibility
2:30 AM
Sat, Jul 4
81 °FClear.26 mph70%29.86 "Hg10 mi
2:00 AM81 °FClear.28 mph70%29.86 "Hg10 mi
1:30 AM81 °FClear.26 mph70%29.86 "Hg10 mi
1:00 AM81 °FClear.25 mph58%29.86 "Hg10 mi
12:30 AM81 °FClear.23 mph58%29.86 "Hg10 mi
12:00 AM81 °FClear.20 mph62%29.86 "Hg10 mi
11:30 PM
Fri, Jul 3
79 °FClear.17 mph70%29.86 "Hg10 mi
11:00 PM79 °FClear.17 mph70%29.86 "Hg10 mi
10:30 PM79 °FClear.17 mph74%29.86 "Hg10 mi
10:00 PM79 °FSunny.17 mph79%29.83 "Hg10 mi
9:30 PM79 °FSunny.18 mph74%29.83 "Hg10 mi
9:00 PM81 °FSunny.16 mph66%29.83 "Hg10 mi
8:30 PM81 °FSunny.18 mph62%29.80 "Hg10 mi
8:00 PM82 °FSunny.16 mph58%29.80 "Hg10 mi
7:30 PM84 °FSunny.16 mph51%29.80 "Hg10 mi
7:00 PM86 °FSunny.15 mph46%29.80 "Hg10 mi
6:30 PM86 °FSunny.13 mph52%29.80 "Hg10 mi
6:00 PM88 °FSunny.13 mph43%29.80 "Hg10 mi
5:30 PM90 °FSunny.14 mph41%29.80 "Hg10 mi
5:00 PM90 °FSunny.12 mph41%29.80 "Hg10 mi
4:30 PM90 °FSunny.12 mph41%29.80 "Hg10 mi
4:00 PM91 °FSunny.12 mph41%29.80 "Hg10 mi
3:30 PM90 °FSunny.9 mph41%29.80 "Hg10 mi
3:00 PM90 °FSunny.9 mph38%29.83 "Hg10 mi
2:30 PM91 °FSunny.9 mph34%29.83 "Hg10 mi
2:00 PM90 °FSunny.10 mph36%29.83 "Hg10 mi
1:30 PM91 °FSunny.10 mph34%29.83 "Hg10 mi
1:00 PM90 °FSunny.12 mph36%29.86 "Hg10 mi
12:30 PM88 °FSunny.13 mph38%29.86 "Hg10 mi
12:00 PM88 °FSunny.14 mph38%29.86 "Hg10 mi
11:30 AM88 °FSunny.14 mph43%29.86 "Hg10 mi
11:00 AM86 °FSunny.16 mph46%29.86 "Hg10 mi
10:30 AM86 °FSunny.14 mph46%29.86 "Hg10 mi
10:00 AM84 °FSunny.14 mph51%29.86 "Hg10 mi
9:30 AM84 °FSunny.15 mph51%29.86 "Hg10 mi
9:00 AM82 °FSunny.12 mph62%29.86 "Hg10 mi
8:30 AM82 °FSunny.12 mph62%29.86 "Hg10 mi
8:00 AM81 °FSunny.8 mph66%29.86 "Hg10 mi
7:30 AM79 °FSunny.8 mph70%29.86 "Hg10 mi
7:00 AM77 °FClear.7 mph74%29.86 "Hg10 mi
6:30 AM75 °FClear.6 mph78%29.86 "Hg10 mi
6:00 AM75 °FClear.6 mph78%29.86 "Hg10 mi
5:30 AM77 °FClear.7 mph74%29.86 "Hg10 mi
5:00 AM77 °FClear.7 mph74%29.89 "Hg10 mi
4:30 AM77 °FClear.7 mph79%29.89 "Hg10 mi
4:00 AM77 °FClear.7 mph79%29.89 "Hg10 mi
3:30 AM77 °FClear.7 mph79%29.89 "Hg10 mi
3:00 AM77 °FClear.8 mph79%29.89 "Hg10 mi
Weather by CustomWeather, © 2015

See weather overviewHow to use our weather pages